FW7313 Weather Reports


time (UTC)temp
C
wind
direction
speed
KPH
gust
KPH
rain 1hr
cm
rain 24hr
cm
rain mn
cm
humidity
%
barometer
mb
20260506193300 29 172 6.4 12.9 0.00 0.00 0.00 70 1007.8
20260506192756 28 175 9.7 16.1 0.00 0.00 0.00 70 1008.2
20260506192253 29 154 9.7 16.1 0.00 0.00 0.00 69 1008.0
20260506191750 29 244 0.0 4.8 0.00 0.00 0.00 69 1008.1
20260506191246 28 54 0.0 16.1 0.00 0.00 0.00 70 1008.1
20260506190744 28 168 1.6 9.7 0.00 0.00 0.00 71 1008.2
20260506190240 28 172 6.4 6.4 0.00 0.00 0.00 71 1008.2
20260506185737 28 201 0.0 9.7 0.00 0.00 0.00 73 1008.6
20260506185234 28 221 3.2 12.9 0.00 0.00 0.00 72 1008.5
20260506184731 28 184 0.0 4.8 0.00 0.00 0.00 72 1008.4
20260506184228 28 160 0.0 9.7 0.00 0.00 0.00 72 1008.4
20260506183725 28 165 3.2 11.3 0.00 0.00 0.00 72 1008.6
20260506183221 28 146 0.0 9.7 0.00 0.00 0.00 72 1008.7
20260506182718 28 139 0.0 1.6 0.00 0.00 0.00 72 1008.6
20260506182215 28 165 1.6 1.6 0.00 0.00 0.00 72 1008.6
20260506181713 28 305 0.0 11.3 0.00 0.00 0.00 73 1008.9
20260506181210 28 158 0.0 4.8 0.00 0.00 0.00 71 1008.8
20260506180707 28 186 0.0 0.0 0.00 0.00 0.00 71 1008.7
20260506180203 28 187 0.0 9.7 0.00 0.00 0.00 70 1008.9
20260506175700 28 168 0.0 4.8 0.00 0.00 0.00 70 1009.0
20260506175157 28 224 0.0 1.6 0.00 0.00 0.00 72 1008.8
20260506174654 28 200 3.2 11.3 0.00 0.00 0.00 70 1008.7
20260506174151 28 208 1.6 1.6 0.00 0.00 0.00 71 1008.9
20260506173649 28 195 0.0 1.6 0.00 0.00 0.00 71 1008.9
20260506173145 28 179 1.6 1.6 0.00 0.00 0.00 70 1009.1
20260506172642 28 151 0.0 4.8 0.00 0.00 0.00 71 1009.0
20260506172139 28 153 0.0 11.3 0.00 0.00 0.00 73 1009.1
20260506171631 28 150 11.3 16.1 0.00 0.00 0.00 72 1009.2
20260506171128 28 192 6.4 11.3 0.00 0.00 0.00 72 1009.4
20260506170626 28 171 0.0 1.6 0.00 0.00 0.00 72 1009.4
20260506170123 28 188 8.0 11.3 0.00 0.00 0.00 70 1009.4
20260506165621 28 146 0.0 9.7 0.00 0.00 0.00 71 1009.3
20260506165117 28 320 0.0 9.7 0.00 0.00 0.00 72 1009.1
20260506164614 28 265 1.6 12.9 0.00 0.00 0.00 73 1009.3
20260506164112 27 233 0.0 16.1 0.00 0.00 0.00 75 1009.1
20260506163607 27 141 0.0 4.8 0.00 0.00 0.00 76 1009.2
20260506163103 27 181 1.6 6.4 0.00 0.00 0.00 77 1009.0
20260506162600 27 203 3.2 9.7 0.00 0.00 0.00 78 1009.3
20260506162057 27 161 0.0 9.7 0.00 0.00 0.00 78 1009.1
20260506161554 26 152 0.0 1.6 0.00 0.00 0.00 80 1008.9
20260506161051 26 159 1.6 11.3 0.00 0.00 0.00 80 1008.7
20260506160548 26 123 0.0 6.4 0.00 0.00 0.00 80 1009.2
20260506160045 26 78 0.0 0.0 0.00 0.00 0.00 81 1009.2
20260506155544 26 217 0.0 9.7 0.00 0.00 0.00 81 1009.1
20260506153715 26 160 0.0 16.1 0.00 0.00 0.00 81 1008.7
20260506153213 26 160 0.0 6.4 0.00 0.00 0.00 81 1008.7
20260506152709 26 188 3.2 9.7 0.00 0.00 0.00 82 1008.5
20260506152207 26 181 3.2 6.4 0.00 0.00 0.00 82 1008.9
20260506151706 26 167 0.0 11.3 0.00 0.00 0.00 82 1008.3
20260506151202 26 127 0.0 17.7 0.00 0.00 0.00 82 1008.4
20260506150658 26 149 4.8 12.9 0.00 0.00 0.00 82 1008.2
20260506150156 26 213 3.2 11.3 0.00 0.00 0.00 82 1008.4
20260506145653 26 195 4.8 11.3 0.00 0.00 0.00 83 1008.4
20260506145149 26 140 0.0 9.7 0.00 0.00 0.00 83 1008.1
20260506144647 26 119 0.0 9.7 0.00 0.00 0.00 83 1008.1
20260506144144 26 192 1.6 6.4 0.00 0.00 0.00 83 1007.9
20260506143641 25 146 0.0 1.6 0.00 0.00 0.00 84 1008.1
20260506143139 25 175 1.6 6.4 0.00 0.00 0.00 84 1008.1
20260506142637 25 116 0.0 6.4 0.00 0.00 0.00 84 1007.9
20260506142135 25 158 4.8 4.8 0.00 0.00 0.00 84 1008.1
20260506141632 25 129 0.0 4.8 0.00 0.00 0.00 84 1008.3
20260506141130 25 106 1.6 11.3 0.00 0.00 0.00 83 1008.3
20260506140627 26 162 0.0 0.0 0.00 0.00 0.00 83 1008.2
20260506140125 26 155 0.0 0.0 0.00 0.00 0.00 83 1008.6
20260506135621 26 33 0.0 0.0 0.00 0.00 0.00 83 1008.4
20260506135118 26 181 0.0 6.4 0.00 0.00 0.00 83 1008.4
20260506134615 26 141 0.0 6.4 0.00 0.00 0.00 83 1008.1
20260506134110 25 131 1.6 1.6 0.00 0.00 0.00 84 1008.3
20260506133608 25 206 0.0 1.6 0.00 0.00 0.00 84 1008.3
20260506133104 25 97 3.2 4.8 0.00 0.00 0.00 85 1008.4
20260506132602 25 140 0.0 0.0 0.00 0.00 0.00 85 1008.3
20260506132059 25 147 0.0 1.6 0.00 0.00 0.00 85 1008.2
20260506131556 25 209 0.0 0.0 0.00 0.00 0.00 86 1008.5
20260506131052 25 160 0.0 1.6 0.00 0.00 0.00 86 1008.4
20260506130549 25 164 0.0 4.8 0.00 0.00 0.00 86 1008.4
20260506130047 25 119 0.0 0.0 0.00 0.00 0.00 86 1008.5
20260506125545 25 172 0.0 1.6 0.00 0.00 0.00 86 1008.5
20260506125043 25 91 0.0 0.0 0.00 0.00 0.00 86 1008.3
20260506124540 25 193 0.0 1.6 0.00 0.00 0.00 86 1008.4
20260506124038 25 152 0.0 6.4 0.00 0.00 0.00 86 1008.1
20260506123535 25 131 1.6 1.6 0.00 0.00 0.00 86 1008.2
20260506123034 25 184 3.2 6.4 0.00 0.00 0.00 86 1008.4
20260506122530 25 154 0.0 1.6 0.00 0.00 0.00 86 1008.1
20260506122028 25 158 1.6 6.4 0.00 0.00 0.00 86 1007.9
20260506121525 25 179 0.0 12.9 0.00 0.00 0.00 86 1008.0
20260506121021 25 172 1.6 4.8 0.00 0.00 0.00 87 1007.9
20260506120519 25 169 0.0 6.4 0.00 0.00 0.00 87 1007.8
20260506120017 25 148 0.0 0.0 0.00 0.00 0.00 87 1008.0
20260506115514 25 196 0.0 1.6 0.00 0.00 0.00 87 1007.7
20260506115013 25 174 4.8 4.8 0.00 0.00 0.00 87 1007.6
20260506114509 25 116 0.0 1.6 0.00 0.00 0.00 87 1007.6
20260506114008 24 159 0.0 0.0 0.00 0.00 0.00 87 1007.5
20260506113506 24 142 0.0 6.4 0.00 0.00 0.00 88 1007.5
20260506113003 24 172 0.0 4.8 0.00 0.00 0.00 88 1007.4
20260506112459 24 157 0.0 0.0 0.00 0.00 0.00 88 1007.1
20260506111956 24 155 0.0 6.4 0.00 0.00 0.00 88 1007.5
20260506111454 24 157 0.0 4.8 0.00 0.00 0.00 88 1007.2
20260506110951 24 183 0.0 6.4 0.00 0.00 0.00 88 1007.3
20260506110449 24 188 0.0 6.4 0.00 0.00 0.00 88 1007.4
20260506105945 24 151 0.0 4.8 0.00 0.00 0.00 88 1007.2
20260506105442 24 156 0.0 9.7 0.00 0.00 0.00 88 1007.4
20260506104939 24 166 0.0 9.7 0.00 0.00 0.00 87 1007.2
20260506104437 24 143 0.0 4.8 0.00 0.00 0.00 87 1007.1
20260506103936 24 193 6.4 9.7 0.00 0.00 0.00 87 1007.2
20260506103432 24 168 0.0 9.7 0.00 0.00 0.00 87 1007.1
20260506102929 24 176 0.0 4.8 0.00 0.00 0.00 87 1007.2
20260506102427 24 139 1.6 4.8 0.00 0.00 0.00 87 1007.4
20260506101924 24 107 1.6 4.8 0.00 0.00 0.00 87 1007.0
20260506101420 24 136 0.0 9.7 0.00 0.00 0.00 86 1007.1
20260506100918 24 140 0.0 4.8 0.00 0.00 0.00 86 1006.9
20260506100416 25 149 1.6 6.4 0.00 0.00 0.00 86 1006.9
20260506095913 25 169 0.0 4.8 0.00 0.00 0.00 86 1006.8
20260506095412 25 96 3.2 9.7 0.00 0.00 0.00 86 1006.7
20260506094908 25 128 1.6 4.8 0.00 0.00 0.00 86 1007.0
20260506094407 25 101 0.0 1.6 0.00 0.00 0.00 86 1006.8
20260506093904 25 161 1.6 6.4 0.00 0.00 0.00 86 1006.8
20260506093401 24 167 1.6 4.8 0.00 0.00 0.00 86 1007.0
20260506092859 24 114 0.0 6.4 0.00 0.00 0.00 86 1007.0
20260506092357 24 146 0.0 0.0 0.00 0.00 0.00 86 1007.0
20260506091853 24 168 3.2 6.4 0.00 0.00 0.00 86 1007.1
20260506091352 24 149 0.0 4.8 0.00 0.00 0.00 86 1006.9
20260506090848 24 176 1.6 4.8 0.00 0.00 0.00 86 1007.0
20260506090346 24 189 0.0 6.4 0.00 0.00 0.00 86 1007.1
20260506085843 24 170 4.8 6.4 0.00 0.00 0.00 86 1006.9
20260506085339 25 108 0.0 6.4 0.00 0.00 0.00 86 1007.2
20260506084835 25 162 8.0 11.3 0.00 0.00 0.00 86 1007.2
20260506084332 25 142 4.8 6.4 0.00 0.00 0.00 85 1007.4
20260506083829 25 160 1.6 6.4 0.00 0.00 0.00 85 1007.1
20260506083326 25 108 0.0 4.8 0.00 0.00 0.00 85 1007.2
20260506082823 25 174 0.0 11.3 0.00 0.00 0.00 85 1007.3
20260506082320 25 279 0.0 0.0 0.00 0.00 0.00 85 1007.2
20260506081816 25 172 1.6 11.3 0.00 0.00 0.00 85 1007.2
20260506081314 25 190 6.4 9.7 0.00 0.00 0.00 85 1007.4
20260506080811 25 148 4.8 6.4 0.00 0.00 0.00 85 1007.3
20260506080307 25 174 4.8 6.4 0.00 0.00 0.00 85 1007.4
20260506073246 25 164 0.0 1.6 0.00 0.00 0.00 85 1007.6
20260506072743 25 210 0.0 0.0 0.00 0.00 0.00 85 1007.8
20260506072241 25 163 3.2 9.7 0.00 0.00 0.00 85 1008.1
20260506071738 25 141 0.0 4.8 0.00 0.00 0.00 84 1008.1
20260506071236 25 163 0.0 4.8 0.00 0.00 0.00 84 1008.0
20260506070733 25 210 0.0 1.6 0.00 0.00 0.00 84 1008.2
20260506070229 25 194 0.0 0.0 0.00 0.00 0.00 84 1008.2
20260506062207 25 154 0.0 0.0 0.00 0.00 0.00 83 1007.9
20260506061702 25 190 0.0 4.8 0.00 0.00 0.00 83 1007.8
20260506061200 25 244 0.0 9.7 0.00 0.00 0.00 83 1007.9
20260506060659 25 166 3.2 9.7 0.00 0.00 0.00 83 1007.9
20260506060155 25 263 0.0 11.3 0.00 0.00 0.00 83 1007.9
20260506051127 25 162 0.0 0.0 0.00 0.00 0.00 82 1008.2
20260506050625 25 206 1.6 11.3 0.00 0.00 0.00 82 1008.1
20260506050122 25 160 4.8 9.7 0.00 0.00 0.00 82 1008.3
20260506045115 25 217 1.6 9.7 0.00 0.00 0.00 82 1008.1
20260506044613 25 180 0.0 16.1 0.00 0.00 0.00 82 1008.0
20260506044110 25 122 4.8 12.9 0.00 0.00 0.00 81 1008.0
20260506043607 25 119 0.0 17.7 0.00 0.00 0.00 81 1008.0
20260506043105 25 180 9.7 16.1 0.00 0.00 0.00 81 1007.8
20260506042604 25 169 8.0 17.7 0.00 0.00 0.00 81 1008.1
20260506042102 25 219 0.0 11.3 0.00 0.00 0.00 81 1008.0
20260506041600 25 58 1.6 20.9 0.00 0.00 0.00 81 1007.8
20260506041056 25 298 4.8 16.1 0.00 0.00 0.00 81 1007.6
20260506040555 25 140 11.3 11.3 0.00 0.00 0.00 81 1008.0
20260506040050 25 197 11.3 22.5 0.00 0.00 0.00 81 1007.7
20260506035547 25 169 8.0 22.5 0.00 0.00 0.00 81 1007.9
20260506035044 25 173 6.4 20.9 0.00 0.00 0.00 82 1008.0
20260506034542 25 187 0.0 9.7 0.00 0.00 0.00 82 1007.8
20260506034038 25 20 0.0 16.1 0.00 0.00 0.00 81 1007.9
20260506033536 25 147 3.2 17.7 0.00 0.00 0.00 81 1007.8
20260506033032 25 136 6.4 16.1 0.00 0.00 0.00 81 1007.8
20260506032530 25 185 0.0 11.3 0.00 0.00 0.00 81 1007.8
20260506032026 25 189 1.6 16.1 0.00 0.00 0.00 82 1007.6
20260506031524 25 182 6.4 12.9 0.00 0.00 0.00 82 1007.6
20260506031021 25 163 0.0 11.3 0.00 0.00 0.00 82 1007.6
20260506030519 25 136 1.6 9.7 0.00 0.00 0.00 82 1007.5
20260506030016 25 186 9.7 11.3 0.00 0.00 0.00 81 1007.5
20260506025513 25 181 9.7 16.1 0.00 0.00 0.00 81 1007.5
20260506025009 25 190 0.0 4.8 0.00 0.00 0.00 81 1007.7
20260506024506 25 209 0.0 16.1 0.00 0.00 0.00 82 1007.4
20260506024002 25 162 4.8 9.7 0.00 0.00 0.00 82 1007.4
20260506023458 25 199 0.0 11.3 0.00 0.00 0.00 82 1007.1
20260506022955 25 198 3.2 9.7 0.00 0.00 0.00 82 1007.1
20260506022453 25 160 0.0 11.3 0.00 0.00 0.00 82 1007.2
20260506021951 25 162 0.0 1.6 0.00 0.00 0.00 82 1006.8
20260506021448 25 174 4.8 12.9 0.00 0.00 0.00 82 1007.0
20260506020945 25 168 0.0 6.4 0.00 0.00 0.00 82 1006.9
20260506020443 25 204 8.0 12.9 0.00 0.00 0.00 82 1006.7
20260506015940 25 168 6.4 12.9 0.00 0.00 0.00 82 1006.7
20260506015437 25 168 9.7 11.3 0.00 0.00 0.00 82 1006.8
20260506014934 25 157 0.0 9.7 0.00 0.00 0.00 81 1006.7
20260506014431 25 142 8.0 16.1 0.00 0.00 0.00 81 1006.7
20260506013927 25 240 0.0 9.7 0.00 0.00 0.00 81 1006.6
20260506013426 25 139 0.0 11.3 0.00 0.00 0.00 81 1006.6
20260506012921 25 181 0.0 17.7 0.00 0.00 0.00 80 1006.3
20260506012418 25 193 8.0 16.1 0.00 0.00 0.00 80 1006.3
20260506011915 25 168 1.6 9.7 0.00 0.00 0.00 80 1006.3
20260506011413 25 180 3.2 16.1 0.00 0.00 0.00 79 1006.1
20260506010909 25 134 0.0 12.9 0.00 0.00 0.00 79 1006.1
20260506010408 25 186 6.4 12.9 0.00 0.00 0.00 78 1006.1
20260506005904 25 286 4.8 11.3 0.00 0.00 0.00 78 1006.2
20260506005402 25 249 0.0 12.9 0.00 0.00 0.00 78 1006.0
20260506004857 25 177 4.8 16.1 0.00 0.00 0.00 78 1005.7
20260506004355 25 143 0.0 11.3 0.00 0.00 0.00 78 1005.8
20260506003850 26 166 0.0 11.3 0.00 0.00 0.00 77 1005.9
20260506003347 26 105 3.2 4.8 0.00 0.00 0.00 77 1005.8
20260506002843 26 100 4.8 11.3 0.00 0.00 0.00 77 1005.8
20260506002339 26 180 17.7 27.4 0.00 0.00 0.00 77 1005.7
20260506001835 26 152 6.4 20.9 0.00 0.00 0.00 77 1005.8
20260506001333 26 184 0.0 16.1 0.00 0.00 0.00 77 1005.7
20260506000830 26 175 8.0 12.9 0.00 0.00 0.00 76 1005.8
20260506000330 26 111 11.3 20.9 0.00 0.00 0.00 76 1005.8
20260505235824 26 162 3.2 17.7 0.00 0.00 0.00 76 1005.9
20260505235322 26 183 1.6 6.4 0.00 0.00 0.00 76 1005.6
20260505234818 26 217 0.0 6.4 0.00 0.00 0.00 76 1006.0
20260505234316 26 137 4.8 17.7 0.00 0.00 0.00 75 1005.9
20260505233813 26 170 3.2 16.1 0.00 0.00 0.00 75 1006.0
20260505233311 26 173 4.8 17.7 0.00 0.00 0.00 75 1005.7
20260505232808 26 226 11.3 16.1 0.00 0.00 0.00 74 1005.9
20260505232306 26 286 0.0 6.4 0.00 0.00 0.00 74 1006.0
20260505231802 26 188 0.0 17.7 0.00 0.00 0.00 74 1005.9
20260505231301 26 151 1.6 11.3 0.00 0.00 0.00 74 1005.8
20260505230758 26 165 14.5 17.7 0.00 0.00 0.00 73 1005.9
20260505230255 26 183 0.0 6.4 0.00 0.00 0.00 73 1005.7
20260505225752 26 132 0.0 9.7 0.00 0.00 0.00 73 1005.8
20260505225249 26 180 0.0 16.1 0.00 0.00 0.00 73 1005.8
20260505224743 27 133 4.8 27.4 0.00 0.00 0.00 72 1005.9
20260505224241 27 158 8.0 16.1 0.00 0.00 0.00 71 1005.9
20260505223738 27 174 4.8 9.7 0.00 0.00 0.00 70 1005.8
20260505223234 27 162 3.2 6.4 0.00 0.00 0.00 69 1005.9
20260505222731 27 202 0.0 12.9 0.00 0.00 0.00 69 1006.2
20260505222227 27 162 1.6 16.1 0.00 0.00 0.00 70 1006.1
20260505221725 27 122 0.0 11.3 0.00 0.00 0.00 70 1006.1
20260505221221 27 219 9.7 16.1 0.00 0.00 0.00 72 1005.9
20260505220718 27 151 9.7 20.9 0.00 0.00 0.00 73 1005.9
20260505220216 27 95 0.0 17.7 0.00 0.00 0.00 74 1006.1
20260505215714 26 235 1.6 12.9 0.00 0.00 0.00 74 1006.2
20260505215212 27 166 8.0 16.1 0.00 0.00 0.00 73 1006.3
20260505214709 26 213 4.8 6.4 0.00 0.00 0.00 72 1006.5
20260505214206 26 111 1.6 9.7 0.00 0.00 0.00 74 1006.5
20260505213704 26 192 3.2 16.1 0.00 0.00 0.00 74 1006.4
20260505213200 27 178 3.2 20.9 0.00 0.00 0.00 73 1006.5
20260505212656 27 117 4.8 12.9 0.00 0.00 0.00 72 1006.5
20260505212154 27 215 3.2 4.8 0.00 0.00 0.00 70 1006.4
20260505211650 27 103 0.0 6.4 0.00 0.00 0.00 70 1006.4
20260505211142 27 200 0.0 11.3 0.00 0.00 0.00 69 1006.7
20260505210639 27 193 0.0 11.3 0.00 0.00 0.00 70 1006.5
20260505210135 27 161 3.2 17.7 0.00 0.00 0.00 71 1006.8
20260505205633 27 263 4.8 17.7 0.00 0.00 0.00 73 1006.8
20260505205131 27 64 1.6 11.3 0.00 0.00 0.00 73 1007.0
20260505204627 27 140 4.8 9.7 0.00 0.00 0.00 73 1007.1
20260505204125 27 180 1.6 12.9 0.00 0.00 0.00 73 1007.2
20260505203622 27 131 6.4 22.5 0.00 0.00 0.00 71 1007.2
20260505203119 27 221 0.0 11.3 0.00 0.00 0.00 72 1007.2
20260505202614 27 223 6.4 20.9 0.00 0.00 0.00 73 1007.3
20260505202111 27 120 6.4 16.1 0.00 0.00 0.00 73 1007.2
20260505201607 26 248 0.0 20.9 0.00 0.00 0.00 74 1007.2
20260505201105 26 217 6.4 17.7 0.00 0.00 0.00 73 1007.4
20260505200603 26 176 6.4 16.1 0.00 0.00 0.00 73 1007.5
20260505200100 26 195 0.0 9.7 0.00 0.00 0.00 74 1007.7
20260505195556 27 173 1.6 24.1 0.00 0.00 0.00 72 1007.6
20260505195054 27 209 4.8 16.1 0.00 0.00 0.00 72 1007.6
20260505194550 27 195 6.4 20.9 0.00 0.00 0.00 72 1007.6
20260505194046 27 212 12.9 17.7 0.00 0.00 0.00 72 1007.6